This is the latest recevied weather packets stored in our database for station/object KB4MOX. If no packets are shown the sender has not sent any weather packets the latest 10 day(s).
| Time | Temp. | Humidity | Pressure | Rain* | Wind** | Luminosity | Snow |
|---|---|---|---|---|---|---|---|
| 1787542252 | 24.44° C | 80% | 1015.5 hPa | 0 mm | - | 0 W/m² | - |
| 1787541948 | 25° C | 80% | 1015.6 hPa | 0 mm | - | 0 W/m² | - |
| 1787541644 | 25° C | 79% | 1015.4 hPa | 0 mm | - | 0 W/m² | - |
| 1787541340 | 25° C | 79% | 1015.4 hPa | 0 mm | - | 0 W/m² | - |
| 1787541037 | 25° C | 80% | 1015.5 hPa | 0 mm | - | 0 W/m² | - |
| 1787540732 | 24.44° C | 80% | 1015.4 hPa | 0 mm | - | 0 W/m² | - |
| 1787540427 | 25° C | 80% | 1015.5 hPa | 0 mm | - | 0 W/m² | - |
| 1787540126 | 25° C | 80% | 1015.3 hPa | 0 mm | - | 0 W/m² | - |
| 1787539822 | 25° C | 79% | 1015.4 hPa | 0 mm | - | 0 W/m² | - |
| 1787539517 | 25° C | 79% | 1015.4 hPa | 0 mm | - | 0 W/m² | - |
| 1787539217 | 25.56° C | 78% | 1015.4 hPa | 0 mm | - | 0 W/m² | - |
| 1787538913 | 25.56° C | 77% | 1015.6 hPa | 0 mm | - | 0 W/m² | - |
| 1787538610 | 25.56° C | 77% | 1015.7 hPa | 0 mm | - | 0 W/m² | - |
| 1787538306 | 25.56° C | 76% | 1015.3 hPa | 0 mm | - | 0 W/m² | - |
| 1787538001 | 26.11° C | 75% | 1015.4 hPa | 0 mm | - | 0 W/m² | - |
| 1787537697 | 26.11° C | 75% | 1015.2 hPa | 0 mm | - | 0 W/m² | - |
| 1787537392 | 26.11° C | 75% | 1015.3 hPa | 0 mm | - | 0 W/m² | - |
| 1787537093 | 25.56° C | 76% | 1015 hPa | 0 mm | - | 0 W/m² | - |
| 1787536792 | 26.11° C | 76% | 1015.1 hPa | 0 mm | - | 0 W/m² | - |
| 1787536489 | 26.11° C | 75% | 1015.1 hPa | 0 mm | - | 0 W/m² | - |
| 1787536189 | 26.11° C | 76% | 1015.1 hPa | 0 mm | - | 0 W/m² | - |
| 1787535884 | 26.11° C | 75% | 1014.9 hPa | 0 mm | - | 0 W/m² | - |
| 1787535584 | 26.11° C | 74% | 1014.9 hPa | 0 mm | - | 0 W/m² | - |
| 1787535280 | 26.11° C | 74% | 1014.8 hPa | 0 mm | - | 0 W/m² | - |
| 1787534975 | 26.67° C | 74% | 1014.7 hPa | 0 mm | - | 0 W/m² | - |
* Rain latest hour (hover to see other rain measurements)
** Current wind speed in m/s (hover to see current wind gust speed)